Weather in Trunovskoye

Russia / Stavropol Krai     45°28′49″N   42°08′20″E
temp.,
°C
wind,
m/s
gust,
m/s
humid.,
%
clouds,
%
prec.,
mm/h
press.,
hPa
HPBL,
m
17 april, sat
sat1700:00+10ese3693100 0.6 1019119
03:00+10wsw2394100 1.2 102042
06:00+11w2791100 0.8 1019381
09:00+10w51194100 4.9 1021581
12:00+10wsw4793100 3.2 1022492
15:00+10wnw4585100 3.6 1022340
18:00+9ssw2492100 0.3 1022192
21:00+9sw3591100 0.5 1023202
18 april, sun
sun1800:00+8ssw2291100 0.3 102264
03:00+8e2390100 0.4 102175
06:00+8e3592100 0.2 1021190
09:00+8e4994100 2.3 1020320
12:00+10e4791100 0.3 1019472
15:00+12e4692100 3.9 1018330
18:00+11ese3794100 1.1 1018208
21:00+11ese349345 1.6 101894
19 april, mon
mon1900:00+11se3894100 0.1 1017171
03:00+11se3695100 0.3 1016138
06:00+12sse3592100 0.0 1015108
09:00+16sw2480100 1.1 1016260
12:00+17ese1176100 0.3 1015403
15:00+17se3480100 0.5 1015352
18:00+15se3589100 0.4 101492
21:00+15se51385100 0.8 1013383
20 april, tue
tue2000:00+14se71680100 0.3 1011391
03:00+14se81873100 0.3 1008374
06:00+12ese102175100 0.0 1005422
09:00+15se122271100 0.0 1003486
12:00+20sse71466100 0.0 1003498
15:00+18sw3682100 3.4 1008480
18:00+16w5979100 0.9 1011420
21:00+13wsw2283100 1.7 101444
21 april, wed
wed2100:00+11wsw31289100 4.5 1016888
03:00+9w4108790 4.7 1018434
06:00+8w269092 0.0 1019259
09:00+10wsw2379100 0.0 1020485
12:00+11s2279100 0.4 1021524
15:00+10s3387100 1.3 1021171
18:00+10se2385100 0.6 1021132
21:00+9sse4689100 0.8 1022167